Time,TemperatureF,DewpointF,PressureIn,WindDirection,WindDirectionDegrees,WindSpeedMPH,WindSpeedGustMPH,Humidity,HourlyPrecipIn,Conditions,Clouds,dailyrainin,SoftwareType,DateUTC
2013-06-27 00:01:00,72.8,69.7,29.74,SSW,200,3.0,3.0,90,0.00,,,0.00,Wunderground v.1.15,2013-06-27 04:01:00,
2013-06-27 00:02:00,72.8,69.7,29.74,SSW,207,3.0,5.0,90,0.00,,,0.00,Wunderground v.1.15,2013-06-27 04:02:00,
2013-06-27 00:03:00,72.8,69.7,29.74,SSW,197,3.0,5.0,90,0.00,,,0.00,Wunderground v.1.15,2013-06-27 04:03:00,
2013-06-27 00:05:00,72.8,69.7,29.74,SSW,203,3.0,5.0,90,0.00,,,0.00,Wunderground v.1.15,2013-06-27 04:05:00,
2013-06-27 00:10:00,72.7,69.6,29.75,SSW,197,3.0,5.0,90,0.00,,,0.00,Wunderground v.1.15,2013-06-27 04:10:00,
2013-06-27 00:16:00,72.6,69.8,29.74,SW,221,3.0,6.0,91,0.00,,,0.00,Wunderground v.1.15,2013-06-27 04:16:00,
2013-06-27 00:22:00,72.6,70.1,29.74,SSW,208,3.0,5.0,92,0.00,,,0.00,Wunderground v.1.15,2013-06-27 04:22:00,
2013-06-27 00:28:00,72.4,69.9,29.75,SSW,194,3.0,7.0,92,0.00,,,0.00,Wunderground v.1.15,2013-06-27 04:28:00,
2013-06-27 00:34:00,72.4,70.3,29.74,South,183,4.0,5.0,93,0.00,,,0.00,Wunderground v.1.15,2013-06-27 04:34:00,
2013-06-27 00:40:00,72.3,70.2,29.74,South,190,4.0,5.0,93,0.00,,,0.00,Wunderground v.1.15,2013-06-27 04:40:00,
2013-06-27 00:46:00,72.2,70.1,29.75,SSW,194,3.0,5.0,93,0.00,,,0.00,Wunderground v.1.15,2013-06-27 04:46:00,
2013-06-27 00:52:00,72.0,70.2,29.74,SSW,200,3.0,5.0,94,0.00,,,0.00,Wunderground v.1.15,2013-06-27 04:52:00,
2013-06-27 00:58:00,71.8,70.0,29.74,SSW,205,3.0,5.0,94,0.00,,,0.00,Wunderground v.1.15,2013-06-27 04:58:00,
2013-06-27 01:04:00,71.7,69.9,29.74,SSE,163,3.0,5.0,94,0.00,,,0.00,Wunderground v.1.15,2013-06-27 05:04:00,
2013-06-27 01:10:00,71.6,69.8,29.74,SSW,211,3.0,5.0,94,0.00,,,0.00,Wunderground v.1.15,2013-06-27 05:10:00,
2013-06-27 01:15:00,71.6,69.8,29.74,SW,231,3.0,5.0,94,0.00,,,0.00,Wunderground v.1.15,2013-06-27 05:15:00,
2013-06-27 01:21:00,71.6,69.8,29.73,SW,222,3.0,3.0,94,0.00,,,0.00,Wunderground v.1.15,2013-06-27 05:21:00,
2013-06-27 01:27:00,71.5,69.7,29.73,West,259,2.0,5.0,94,0.00,,,0.00,Wunderground v.1.15,2013-06-27 05:27:00,
2013-06-27 01:33:00,71.4,69.6,29.73,WSW,253,2.0,5.0,94,0.00,,,0.00,Wunderground v.1.15,2013-06-27 05:33:00,
2013-06-27 01:39:00,71.4,69.6,29.73,SW,219,2.0,5.0,94,0.00,,,0.00,Wunderground v.1.15,2013-06-27 05:39:00,
2013-06-27 01:45:00,71.4,69.6,29.73,SW,225,1.0,5.0,94,0.00,,,0.00,Wunderground v.1.15,2013-06-27 05:45:00,
2013-06-27 01:51:00,71.3,69.5,29.73,SW,235,2.0,5.0,94,0.00,,,0.00,Wunderground v.1.15,2013-06-27 05:51:00,
2013-06-27 01:56:00,71.2,69.4,29.73,SSW,210,2.0,5.0,94,0.00,,,0.00,Wunderground v.1.15,2013-06-27 05:56:00,
2013-06-27 02:02:00,71.1,69.3,29.73,WSW,239,2.0,7.0,94,0.00,,,0.00,Wunderground v.1.15,2013-06-27 06:02:00,
2013-06-27 02:08:00,71.1,69.3,29.72,WSW,240,4.0,7.0,94,0.00,,,0.00,Wunderground v.1.15,2013-06-27 06:08:00,
2013-06-27 02:14:00,71.0,69.2,29.73,NW,315,4.0,5.0,94,0.00,,,0.00,Wunderground v.1.15,2013-06-27 06:14:00,
2013-06-27 02:20:00,70.9,69.1,29.73,WSW,240,4.0,8.0,94,0.00,,,0.00,Wunderground v.1.15,2013-06-27 06:20:00,
2013-06-27 02:26:00,70.8,69.0,29.73,WSW,252,4.0,6.0,94,0.00,,,0.00,Wunderground v.1.15,2013-06-27 06:26:00,
2013-06-27 02:32:00,70.8,69.0,29.73,SSW,205,3.0,5.0,94,0.00,,,0.00,Wunderground v.1.15,2013-06-27 06:32:00,
2013-06-27 02:37:00,70.7,68.9,29.73,WSW,240,3.0,5.0,94,0.00,,,0.00,Wunderground v.1.15,2013-06-27 06:37:00,
2013-06-27 02:43:00,70.6,68.8,29.73,NW,308,3.0,5.0,94,0.00,,,0.00,Wunderground v.1.15,2013-06-27 06:43:00,
2013-06-27 02:49:00,70.6,68.8,29.73,SSW,207,3.0,7.0,94,0.00,,,0.00,Wunderground v.1.15,2013-06-27 06:49:00,
2013-06-27 02:55:00,70.5,69.0,29.73,WSW,240,6.0,9.0,95,0.00,,,0.00,Wunderground v.1.15,2013-06-27 06:55:00,
2013-06-27 03:00:00,70.4,68.9,29.74,SW,218,7.0,9.0,95,0.00,,,0.00,Wunderground v.1.15,2013-06-27 07:00:00,
2013-06-27 03:06:00,70.3,68.8,29.73,WSW,240,8.0,9.0,95,0.00,,,0.00,Wunderground v.1.15,2013-06-27 07:06:00,
2013-06-27 03:11:00,70.3,68.8,29.73,SW,229,7.0,8.0,95,0.00,,,0.00,Wunderground v.1.15,2013-06-27 07:11:00,
2013-06-27 03:17:00,70.3,68.8,29.73,WSW,247,7.0,9.0,95,0.00,,,0.00,Wunderground v.1.15,2013-06-27 07:17:00,
2013-06-27 03:23:00,70.3,68.8,29.73,SW,215,7.0,7.0,95,0.00,,,0.00,Wunderground v.1.15,2013-06-27 07:23:00,
2013-06-27 03:29:00,70.2,68.7,29.73,SW,230,6.0,7.0,95,0.00,,,0.00,Wunderground v.1.15,2013-06-27 07:29:00,
2013-06-27 03:35:00,70.1,68.9,29.73,SSW,193,4.0,5.0,96,0.00,,,0.00,Wunderground v.1.15,2013-06-27 07:35:00,
2013-06-27 03:41:00,70.1,68.9,29.73,WSW,238,3.0,5.0,96,0.00,,,0.00,Wunderground v.1.15,2013-06-27 07:41:00,
2013-06-27 03:47:00,70.1,68.9,29.73,WSW,245,3.0,5.0,96,0.00,,,0.00,Wunderground v.1.15,2013-06-27 07:47:00,
2013-06-27 03:53:00,70.1,68.9,29.73,SSW,206,3.0,5.0,96,0.00,,,0.00,Wunderground v.1.15,2013-06-27 07:53:00,
2013-06-27 03:58:00,70.1,68.9,29.73,SW,233,2.0,5.0,96,0.00,,,0.00,Wunderground v.1.15,2013-06-27 07:58:00,
2013-06-27 04:04:00,70.1,69.2,29.73,SW,233,3.0,5.0,97,0.00,,,0.00,Wunderground v.1.15,2013-06-27 08:04:00,
2013-06-27 04:10:00,70.1,69.2,29.73,SW,232,3.0,5.0,97,0.00,,,0.00,Wunderground v.1.15,2013-06-27 08:10:00,
2013-06-27 04:16:00,70.2,69.3,29.73,WSW,239,3.0,5.0,97,0.00,,,0.00,Wunderground v.1.15,2013-06-27 08:16:00,
2013-06-27 04:22:00,70.1,69.2,29.73,SW,236,3.0,5.0,97,0.00,,,0.00,Wunderground v.1.15,2013-06-27 08:22:00,
2013-06-27 04:28:00,70.2,69.3,29.73,SW,236,3.0,5.0,97,0.00,,,0.00,Wunderground v.1.15,2013-06-27 08:28:00,
2013-06-27 04:34:00,70.2,69.3,29.73,West,264,3.0,5.0,97,0.00,,,0.00,Wunderground v.1.15,2013-06-27 08:34:00,
2013-06-27 04:40:00,70.2,69.6,29.72,WSW,240,4.0,4.0,98,0.00,,,0.00,Wunderground v.1.15,2013-06-27 08:40:00,
2013-06-27 04:45:00,70.2,69.6,29.72,SW,221,4.0,5.0,98,0.00,,,0.00,Wunderground v.1.15,2013-06-27 08:45:00,
2013-06-27 04:51:00,70.2,69.6,29.72,WSW,252,3.0,5.0,98,0.00,,,0.00,Wunderground v.1.15,2013-06-27 08:51:00,
2013-06-27 04:57:00,70.2,69.6,29.72,SW,231,4.0,5.0,98,0.00,,,0.00,Wunderground v.1.15,2013-06-27 08:57:00,
2013-06-27 05:03:00,70.2,69.6,29.73,WSW,244,5.0,6.0,98,0.00,,,0.00,Wunderground v.1.15,2013-06-27 09:03:00,
2013-06-27 05:09:00,70.2,69.6,29.73,SW,228,5.0,6.0,98,0.00,,,0.00,Wunderground v.1.15,2013-06-27 09:09:00,
2013-06-27 05:15:00,70.3,69.7,29.73,WSW,243,4.0,7.0,98,0.00,,,0.00,Wunderground v.1.15,2013-06-27 09:15:00,
2013-06-27 05:21:00,70.3,69.7,29.73,SW,235,4.0,5.0,98,0.00,,,0.00,Wunderground v.1.15,2013-06-27 09:21:00,
2013-06-27 05:27:00,70.3,69.7,29.73,WSW,240,3.0,5.0,98,0.00,,,0.00,Wunderground v.1.15,2013-06-27 09:27:00,
2013-06-27 05:33:00,70.3,69.7,29.73,West,259,3.0,5.0,98,0.00,,,0.00,Wunderground v.1.15,2013-06-27 09:33:00,
2013-06-27 05:38:00,70.3,69.7,29.73,WSW,240,4.0,5.0,98,0.00,,,0.00,Wunderground v.1.15,2013-06-27 09:38:00,
2013-06-27 05:44:00,70.4,69.8,29.73,WSW,243,4.0,5.0,98,0.00,,,0.00,Wunderground v.1.15,2013-06-27 09:44:00,
2013-06-27 05:50:00,70.4,69.8,29.73,SW,233,4.0,4.0,98,0.00,,,0.00,Wunderground v.1.15,2013-06-27 09:50:00,
2013-06-27 05:56:00,70.4,69.8,29.73,WSW,246,4.0,5.0,98,0.00,,,0.00,Wunderground v.1.15,2013-06-27 09:56:00,
2013-06-27 06:02:00,70.4,69.8,29.73,West,274,4.0,5.0,98,0.00,,,0.00,Wunderground v.1.15,2013-06-27 10:02:00,
2013-06-27 06:08:00,70.4,69.8,29.74,WSW,253,3.0,5.0,98,0.00,,,0.00,Wunderground v.1.15,2013-06-27 10:08:00,
2013-06-27 06:14:00,70.4,69.8,29.74,WNW,282,4.0,8.0,98,0.00,,,0.00,Wunderground v.1.15,2013-06-27 10:14:00,
2013-06-27 06:20:00,70.4,69.8,29.74,SW,217,4.0,8.0,98,0.00,,,0.00,Wunderground v.1.15,2013-06-27 10:20:00,
2013-06-27 06:25:00,70.4,70.1,29.74,SW,229,3.0,5.0,99,0.00,,,0.00,Wunderground v.1.15,2013-06-27 10:25:00,
2013-06-27 06:31:00,70.4,70.1,29.74,West,270,3.0,3.0,99,0.00,,,0.00,Wunderground v.1.15,2013-06-27 10:31:00,
2013-06-27 06:37:00,70.4,70.1,29.74,WSW,252,3.0,6.0,99,0.00,,,0.00,Wunderground v.1.15,2013-06-27 10:37:00,
2013-06-27 06:43:00,70.5,70.2,29.74,WSW,246,3.0,5.0,99,0.00,,,0.00,Wunderground v.1.15,2013-06-27 10:43:00,
2013-06-27 06:49:00,70.5,70.2,29.74,SW,217,3.0,5.0,99,0.00,,,0.00,Wunderground v.1.15,2013-06-27 10:49:00,
2013-06-27 06:55:00,70.5,70.2,29.74,SW,228,3.0,5.0,99,0.00,,,0.00,Wunderground v.1.15,2013-06-27 10:55:00,
2013-06-27 07:01:00,70.6,70.3,29.74,WSW,246,3.0,5.0,99,0.00,,,0.00,Wunderground v.1.15,2013-06-27 11:01:00,
2013-06-27 07:06:00,70.6,70.3,29.74,SW,228,3.0,5.0,99,0.00,,,0.00,Wunderground v.1.15,2013-06-27 11:06:00,
2013-06-27 07:11:00,70.7,70.4,29.74,WSW,243,2.0,5.0,99,0.00,,,0.00,Wunderground v.1.15,2013-06-27 11:11:00,
2013-06-27 07:17:00,70.7,70.4,29.74,West,259,2.0,5.0,99,0.00,,,0.00,Wunderground v.1.15,2013-06-27 11:17:00,
2013-06-27 07:23:00,70.8,70.5,29.74,West,278,2.0,6.0,99,0.00,,,0.00,Wunderground v.1.15,2013-06-27 11:23:00,
2013-06-27 07:29:00,70.8,70.5,29.75,SW,231,3.0,6.0,99,0.00,,,0.00,Wunderground v.1.15,2013-06-27 11:29:00,
2013-06-27 07:35:00,70.9,70.3,29.75,West,280,2.0,5.0,98,0.00,,,0.00,Wunderground v.1.15,2013-06-27 11:35:00,
2013-06-27 07:41:00,70.9,70.3,29.75,WNW,294,2.0,2.0,98,0.00,,,0.00,Wunderground v.1.15,2013-06-27 11:41:00,
2013-06-27 07:47:00,71.0,70.4,29.75,WSW,253,2.0,5.0,98,0.00,,,0.00,Wunderground v.1.15,2013-06-27 11:47:00,
2013-06-27 07:52:00,71.1,70.5,29.75,WSW,257,2.0,5.0,98,0.00,,,0.00,Wunderground v.1.15,2013-06-27 11:52:00,
2013-06-27 07:58:00,71.2,70.6,29.75,WSW,247,2.0,5.0,98,0.00,,,0.00,Wunderground v.1.15,2013-06-27 11:58:00,
2013-06-27 08:04:00,71.4,70.8,29.75,NW,318,2.0,5.0,98,0.00,,,0.00,Wunderground v.1.15,2013-06-27 12:04:00,
2013-06-27 08:10:00,71.5,70.6,29.75,NW,320,3.0,5.0,97,0.00,,,0.00,Wunderground v.1.15,2013-06-27 12:10:00,
2013-06-27 08:16:00,71.6,70.7,29.75,NNW,337,5.0,7.0,97,0.00,,,0.00,Wunderground v.1.15,2013-06-27 12:16:00,
2013-06-27 08:21:00,71.6,70.4,29.75,NW,312,6.0,6.0,96,0.00,,,0.00,Wunderground v.1.15,2013-06-27 12:21:00,
2013-06-27 08:27:00,71.8,70.3,29.75,NNW,335,6.0,7.0,95,0.00,,,0.00,Wunderground v.1.15,2013-06-27 12:27:00,
2013-06-27 08:33:00,72.1,70.6,29.75,NNW,339,5.0,5.0,95,0.00,,,0.00,Wunderground v.1.15,2013-06-27 12:33:00,
2013-06-27 08:39:00,72.3,70.2,29.75,NW,323,5.0,10.0,93,0.00,,,0.00,Wunderground v.1.15,2013-06-27 12:39:00,
2013-06-27 08:45:00,72.5,70.4,29.75,NW,321,6.0,9.0,93,0.00,,,0.00,Wunderground v.1.15,2013-06-27 12:45:00,
2013-06-27 08:51:00,72.6,69.2,29.75,NNW,335,7.0,11.0,89,0.00,,,0.00,Wunderground v.1.15,2013-06-27 12:51:00,
2013-06-27 08:56:00,72.7,69.6,29.75,NNW,340,8.0,11.0,90,0.00,,,0.00,Wunderground v.1.15,2013-06-27 12:56:00,
2013-06-27 09:02:00,73.1,69.7,29.76,NW,319,8.0,8.0,89,0.00,,,0.00,Wunderground v.1.15,2013-06-27 13:02:00,
2013-06-27 09:08:00,73.2,69.1,29.76,NW,323,7.0,8.0,87,0.00,,,0.00,Wunderground v.1.15,2013-06-27 13:08:00,
2013-06-27 09:14:00,73.3,69.5,29.76,NNW,344,6.0,7.0,88,0.00,,,0.00,Wunderground v.1.15,2013-06-27 13:14:00,
2013-06-27 09:20:00,73.3,69.2,29.76,NNW,333,6.0,8.0,87,0.00,,,0.00,Wunderground v.1.15,2013-06-27 13:20:00,
2013-06-27 09:26:00,73.5,69.7,29.75,NNW,327,7.0,9.0,88,0.00,,,0.00,Wunderground v.1.15,2013-06-27 13:26:00,
2013-06-27 09:32:00,73.7,68.9,29.76,NNW,333,7.0,8.0,85,0.00,,,0.00,Wunderground v.1.15,2013-06-27 13:32:00,
2013-06-27 09:37:00,73.8,69.0,29.76,NW,323,7.0,8.0,85,0.00,,,0.00,Wunderground v.1.15,2013-06-27 13:37:00,
2013-06-27 09:43:00,74.0,69.9,29.75,NW,309,6.0,8.0,87,0.00,,,0.00,Wunderground v.1.15,2013-06-27 13:43:00,
2013-06-27 09:49:00,74.0,69.5,29.76,NW,304,6.0,9.0,86,0.00,,,0.00,Wunderground v.1.15,2013-06-27 13:49:00,
2013-06-27 09:54:00,74.1,69.6,29.75,NW,312,5.0,6.0,86,0.00,,,0.00,Wunderground v.1.15,2013-06-27 13:54:00,
2013-06-27 10:01:00,74.3,69.5,29.75,North,349,4.0,10.0,85,0.00,,,0.00,Wunderground v.1.15,2013-06-27 14:01:00,
2013-06-27 10:06:00,74.1,68.6,29.76,NNW,340,6.0,10.0,83,0.00,,,0.00,Wunderground v.1.15,2013-06-27 14:06:00,
2013-06-27 10:12:00,74.6,69.8,29.75,SSW,200,6.0,6.0,85,0.00,,,0.00,Wunderground v.1.15,2013-06-27 14:12:00,
2013-06-27 10:18:00,74.8,69.6,29.75,SW,228,5.0,11.0,84,0.00,,,0.00,Wunderground v.1.15,2013-06-27 14:18:00,
2013-06-27 10:23:00,75.0,69.5,29.75,NNW,330,5.0,8.0,83,0.00,,,0.00,Wunderground v.1.15,2013-06-27 14:23:00,
2013-06-27 10:29:00,75.2,70.0,29.75,North,356,5.0,9.0,84,0.00,,,0.00,Wunderground v.1.15,2013-06-27 14:29:00,
2013-06-27 10:35:00,75.5,70.0,29.75,WSW,253,5.0,6.0,83,0.00,,,0.00,Wunderground v.1.15,2013-06-27 14:35:00,
2013-06-27 10:41:00,75.7,69.8,29.75,WSW,256,4.0,4.0,82,0.00,,,0.00,Wunderground v.1.15,2013-06-27 14:41:00,
2013-06-27 10:47:00,76.4,70.9,29.75,SW,233,4.0,7.0,83,0.00,,,0.00,Wunderground v.1.15,2013-06-27 14:47:00,
2013-06-27 10:53:00,77.1,70.1,29.75,NW,314,3.0,6.0,79,0.00,,,0.00,Wunderground v.1.15,2013-06-27 14:53:00,
2013-06-27 10:59:00,77.3,70.3,29.76,WNW,291,4.0,6.0,79,0.00,,,0.00,Wunderground v.1.15,2013-06-27 14:59:00,
2013-06-27 11:04:00,77.4,70.7,29.76,SW,215,4.0,5.0,80,0.00,,,0.00,Wunderground v.1.15,2013-06-27 15:04:00,
2013-06-27 11:10:00,77.8,70.4,29.76,WSW,253,4.0,6.0,78,0.00,,,0.00,Wunderground v.1.15,2013-06-27 15:10:00,
2013-06-27 11:16:00,77.7,70.3,29.76,WNW,300,6.0,11.0,78,0.00,,,0.00,Wunderground v.1.15,2013-06-27 15:16:00,
2013-06-27 11:22:00,78.1,70.7,29.77,SW,235,6.0,6.0,78,0.00,,,0.00,Wunderground v.1.15,2013-06-27 15:22:00,
2013-06-27 11:28:00,78.2,70.0,29.77,WNW,285,5.0,8.0,76,0.00,,,0.00,Wunderground v.1.15,2013-06-27 15:28:00,
2013-06-27 11:34:00,78.1,70.7,29.77,WNW,283,6.0,6.0,78,0.00,,,0.00,Wunderground v.1.15,2013-06-27 15:34:00,
2013-06-27 11:40:00,78.2,70.4,29.77,WNW,300,7.0,12.0,77,0.00,,,0.00,Wunderground v.1.15,2013-06-27 15:40:00,
2013-06-27 11:46:00,78.2,70.4,29.77,NW,312,7.0,9.0,77,0.00,,,0.00,Wunderground v.1.15,2013-06-27 15:46:00,
2013-06-27 11:52:00,78.1,69.9,29.77,NW,319,7.0,7.0,76,0.00,,,0.00,Wunderground v.1.15,2013-06-27 15:52:00,
2013-06-27 11:57:00,78.1,70.7,29.77,NW,305,6.0,7.0,78,0.00,,,0.00,Wunderground v.1.15,2013-06-27 15:57:00,
2013-06-27 12:03:00,77.9,71.2,29.77,NW,316,5.0,6.0,80,0.00,,,0.00,Wunderground v.1.15,2013-06-27 16:03:00,
2013-06-27 12:09:00,78.0,70.2,29.76,NW,319,6.0,9.0,77,0.00,,,0.00,Wunderground v.1.15,2013-06-27 16:09:00,
2013-06-27 12:15:00,79.1,71.6,29.76,WNW,283,4.0,7.0,78,0.00,,,0.00,Wunderground v.1.15,2013-06-27 16:15:00,
2013-06-27 12:21:00,79.5,70.5,29.76,NNW,333,4.0,5.0,74,0.00,,,0.00,Wunderground v.1.15,2013-06-27 16:21:00,
2013-06-27 12:26:00,79.2,70.2,29.76,West,266,6.0,11.0,74,0.00,,,0.00,Wunderground v.1.15,2013-06-27 16:26:00,
2013-06-27 12:32:00,78.8,70.2,29.76,NW,316,6.0,6.0,75,0.00,,,0.00,Wunderground v.1.15,2013-06-27 16:32:00,
2013-06-27 12:38:00,79.1,70.1,29.77,NW,314,6.0,9.0,74,0.00,,,0.00,Wunderground v.1.15,2013-06-27 16:38:00,
2013-06-27 12:44:00,79.2,70.2,29.76,WNW,283,6.0,10.0,74,0.00,,,0.00,Wunderground v.1.15,2013-06-27 16:44:00,
2013-06-27 12:50:00,79.8,71.6,29.76,WNW,294,5.0,10.0,76,0.00,,,0.00,Wunderground v.1.15,2013-06-27 16:50:00,
2013-06-27 12:56:00,80.5,71.4,29.76,NNW,347,4.0,5.0,74,0.00,,,0.00,Wunderground v.1.15,2013-06-27 16:56:00,
2013-06-27 13:01:00,80.6,71.1,29.76,WNW,301,5.0,5.0,73,0.00,,,0.00,Wunderground v.1.15,2013-06-27 17:01:00,
2013-06-27 13:06:00,80.5,71.0,29.76,WSW,252,5.0,9.0,73,0.00,,,0.00,Wunderground v.1.15,2013-06-27 17:06:00,
2013-06-27 13:12:00,80.0,71.4,29.76,NW,315,6.0,6.0,75,0.00,,,0.00,Wunderground v.1.15,2013-06-27 17:12:00,
2013-06-27 13:18:00,80.1,71.5,29.76,SSW,203,6.0,9.0,75,0.00,,,0.00,Wunderground v.1.15,2013-06-27 17:18:00,
2013-06-27 13:24:00,80.4,70.9,29.76,NNW,338,6.0,10.0,73,0.00,,,0.00,Wunderground v.1.15,2013-06-27 17:24:00,
2013-06-27 13:30:00,80.9,72.2,29.77,NNW,329,6.0,10.0,75,0.00,,,0.00,Wunderground v.1.15,2013-06-27 17:30:00,
2013-06-27 13:36:00,81.0,72.3,29.77,NW,309,5.0,10.0,75,0.00,,,0.00,Wunderground v.1.15,2013-06-27 17:36:00,
2013-06-27 13:41:00,81.4,73.1,29.77,NNW,330,5.0,6.0,76,0.00,,,0.00,Wunderground v.1.15,2013-06-27 17:41:00,
2013-06-27 13:47:00,81.4,72.7,29.77,NW,316,6.0,11.0,75,0.00,,,0.00,Wunderground v.1.15,2013-06-27 17:47:00,
2013-06-27 13:53:00,81.3,72.6,29.77,NW,326,7.0,7.0,75,0.00,,,0.00,Wunderground v.1.15,2013-06-27 17:53:00,
2013-06-27 13:59:00,81.9,72.0,29.76,NNW,333,6.0,7.0,72,0.00,,,0.00,Wunderground v.1.15,2013-06-27 17:59:00,
2013-06-27 14:05:00,81.8,72.3,29.76,NW,315,6.0,11.0,73,0.00,,,0.00,Wunderground v.1.15,2013-06-27 18:05:00,
2013-06-27 14:11:00,82.3,72.0,29.76,WSW,255,6.0,6.0,71,0.00,,,0.00,Wunderground v.1.15,2013-06-27 18:11:00,
2013-06-27 14:17:00,81.9,72.8,29.76,WNW,298,6.0,12.0,74,0.00,,,0.00,Wunderground v.1.15,2013-06-27 18:17:00,
2013-06-27 14:23:00,81.8,71.9,29.76,NW,311,6.0,8.0,72,0.00,,,0.00,Wunderground v.1.15,2013-06-27 18:23:00,
2013-06-27 14:28:00,82.0,72.1,29.76,NW,314,5.0,8.0,72,0.00,,,0.00,Wunderground v.1.15,2013-06-27 18:28:00,
2013-06-27 14:34:00,81.7,71.8,29.77,NNW,343,6.0,8.0,72,0.00,,,0.00,Wunderground v.1.15,2013-06-27 18:34:00,
2013-06-27 14:40:00,82.1,71.3,29.77,NW,307,6.0,8.0,70,0.00,,,0.00,Wunderground v.1.15,2013-06-27 18:40:00,
2013-06-27 14:46:00,81.7,71.4,29.77,NW,326,6.0,12.0,71,0.00,,,0.00,Wunderground v.1.15,2013-06-27 18:46:00,
2013-06-27 14:52:00,81.5,71.6,29.77,WNW,288,8.0,8.0,72,0.00,,,0.00,Wunderground v.1.15,2013-06-27 18:52:00,
2013-06-27 14:58:00,81.5,70.8,29.77,WNW,297,9.0,10.0,70,0.00,,,0.00,Wunderground v.1.15,2013-06-27 18:58:00,
2013-06-27 15:03:00,81.4,71.1,29.76,NW,318,8.0,11.0,71,0.00,,,0.00,Wunderground v.1.15,2013-06-27 19:03:00,
2013-06-27 15:09:00,81.6,71.7,29.76,NW,326,8.0,18.0,72,0.00,,,0.00,Wunderground v.1.15,2013-06-27 19:09:00,
2013-06-27 15:15:00,82.7,72.3,29.77,West,259,7.0,11.0,71,0.00,,,0.00,Wunderground v.1.15,2013-06-27 19:15:00,
2013-06-27 15:21:00,82.5,71.7,29.76,WSW,243,6.0,6.0,70,0.00,,,0.00,Wunderground v.1.15,2013-06-27 19:21:00,
2013-06-27 15:27:00,82.9,71.3,29.76,WSW,241,5.0,10.0,68,0.00,,,0.00,Wunderground v.1.15,2013-06-27 19:27:00,
2013-06-27 15:33:00,82.9,72.5,29.76,NW,313,6.0,8.0,71,0.00,,,0.00,Wunderground v.1.15,2013-06-27 19:33:00,
2013-06-27 15:39:00,82.7,72.3,29.76,WSW,253,5.0,9.0,71,0.00,,,0.00,Wunderground v.1.15,2013-06-27 19:39:00,
2013-06-27 15:45:00,82.9,72.1,29.76,WNW,285,6.0,11.0,70,0.00,,,0.00,Wunderground v.1.15,2013-06-27 19:45:00,
2013-06-27 15:51:00,82.8,71.2,29.76,West,267,7.0,11.0,68,0.00,,,0.00,Wunderground v.1.15,2013-06-27 19:51:00,
2013-06-27 15:57:00,82.5,70.9,29.76,West,274,6.0,13.0,68,0.00,,,0.00,Wunderground v.1.15,2013-06-27 19:57:00,
2013-06-27 16:03:00,82.6,71.8,29.76,WSW,243,6.0,7.0,70,0.00,,,0.00,Wunderground v.1.15,2013-06-27 20:03:00,
2013-06-27 16:08:00,83.0,71.3,29.76,West,269,7.0,14.0,68,0.00,,,0.00,Wunderground v.1.15,2013-06-27 20:08:00,
2013-06-27 16:14:00,82.9,71.3,29.76,NW,323,8.0,9.0,68,0.00,,,0.00,Wunderground v.1.15,2013-06-27 20:14:00,
2013-06-27 16:20:00,83.4,72.2,29.76,NW,326,5.0,9.0,69,0.00,,,0.00,Wunderground v.1.15,2013-06-27 20:20:00,
2013-06-27 16:26:00,83.3,71.6,29.76,SSW,195,5.0,13.0,68,0.00,,,0.00,Wunderground v.1.15,2013-06-27 20:26:00,
2013-06-27 16:32:00,83.4,72.2,29.75,SSW,208,6.0,8.0,69,0.00,,,0.00,Wunderground v.1.15,2013-06-27 20:32:00,
2013-06-27 16:37:00,83.7,72.0,29.75,WNW,285,6.0,12.0,68,0.00,,,0.00,Wunderground v.1.15,2013-06-27 20:37:00,
2013-06-27 16:43:00,83.8,73.0,29.75,SW,229,7.0,9.0,70,0.00,,,0.00,Wunderground v.1.15,2013-06-27 20:43:00,
2013-06-27 16:49:00,84.2,72.5,29.74,WSW,246,5.0,9.0,68,0.00,,,0.00,Wunderground v.1.15,2013-06-27 20:49:00,
2013-06-27 16:54:00,83.9,72.2,29.74,WNW,295,5.0,8.0,68,0.00,,,0.00,Wunderground v.1.15,2013-06-27 20:54:00,
2013-06-27 17:01:00,83.6,71.9,29.74,WNW,285,6.0,6.0,68,0.00,,,0.00,Wunderground v.1.15,2013-06-27 21:01:00,
2013-06-27 17:06:00,82.8,71.6,29.74,WSW,246,5.0,7.0,69,0.00,,,0.00,Wunderground v.1.15,2013-06-27 21:06:00,
2013-06-27 17:12:00,82.0,71.7,29.73,WSW,240,5.0,5.0,71,0.00,,,0.00,Wunderground v.1.15,2013-06-27 21:12:00,
2013-06-27 17:17:00,81.5,72.0,29.73,West,269,5.0,5.0,73,0.00,,,0.00,Wunderground v.1.15,2013-06-27 21:17:00,
2013-06-27 17:23:00,81.1,71.2,29.73,NW,307,4.0,5.0,72,0.00,,,0.00,Wunderground v.1.15,2013-06-27 21:23:00,
2013-06-27 17:29:00,80.9,71.0,29.73,WNW,286,4.0,7.0,72,0.00,,,0.00,Wunderground v.1.15,2013-06-27 21:29:00,
2013-06-27 17:35:00,80.7,70.8,29.73,West,268,4.0,6.0,72,0.00,,,0.00,Wunderground v.1.15,2013-06-27 21:35:00,
2013-06-27 17:40:00,80.6,71.1,29.73,SW,226,4.0,6.0,73,0.00,,,0.00,Wunderground v.1.15,2013-06-27 21:40:00,
2013-06-27 17:46:00,80.4,71.3,29.73,West,278,3.0,5.0,74,0.00,,,0.00,Wunderground v.1.15,2013-06-27 21:46:00,
2013-06-27 17:52:00,80.2,71.9,29.74,WSW,256,3.0,5.0,76,0.00,,,0.00,Wunderground v.1.15,2013-06-27 21:52:00,
2013-06-27 17:58:00,80.1,71.5,29.74,West,280,4.0,5.0,75,0.00,,,0.00,Wunderground v.1.15,2013-06-27 21:58:00,
2013-06-27 18:04:00,80.8,72.5,29.73,SW,236,5.0,6.0,76,0.00,,,0.00,Wunderground v.1.15,2013-06-27 22:04:00,
2013-06-27 18:09:00,80.8,72.1,29.73,WSW,252,7.0,15.0,75,0.00,,,0.00,Wunderground v.1.15,2013-06-27 22:09:00,
2013-06-27 18:15:00,79.6,71.4,29.72,SW,228,10.0,17.0,76,0.00,,,0.00,Wunderground v.1.15,2013-06-27 22:15:00,
2013-06-27 18:21:00,78.5,71.4,29.72,West,280,11.0,11.0,79,0.00,,,0.00,Wunderground v.1.15,2013-06-27 22:21:00,
2013-06-27 18:27:00,78.3,71.2,29.71,WSW,252,7.0,11.0,79,0.00,,,0.00,Wunderground v.1.15,2013-06-27 22:27:00,
2013-06-27 18:33:00,79.2,71.0,29.71,NW,321,5.0,10.0,76,0.00,,,0.00,Wunderground v.1.15,2013-06-27 22:33:00,
2013-06-27 18:39:00,79.6,69.8,29.71,West,259,6.0,10.0,72,0.00,,,0.00,Wunderground v.1.15,2013-06-27 22:39:00,
2013-06-27 18:45:00,80.1,69.4,29.71,WSW,242,6.0,7.0,70,0.00,,,0.00,Wunderground v.1.15,2013-06-27 22:45:00,
2013-06-27 18:51:00,80.6,69.5,29.71,WSW,252,4.0,5.0,69,0.00,,,0.00,Wunderground v.1.15,2013-06-27 22:51:00,
2013-06-27 18:57:00,80.7,69.2,29.71,WSW,257,4.0,5.0,68,0.00,,,0.00,Wunderground v.1.15,2013-06-27 22:57:00,
2013-06-27 19:03:00,80.5,68.5,29.71,WSW,249,5.0,5.0,67,0.00,,,0.00,Wunderground v.1.15,2013-06-27 23:03:00,
2013-06-27 19:09:00,80.3,70.0,29.71,SW,233,3.0,5.0,71,0.00,,,0.00,Wunderground v.1.15,2013-06-27 23:09:00,
2013-06-27 19:15:00,79.8,69.1,29.71,SW,230,2.0,5.0,70,0.00,,,0.00,Wunderground v.1.15,2013-06-27 23:15:00,
2013-06-27 19:21:00,79.4,69.2,29.70,SW,228,2.0,5.0,71,0.00,,,0.00,Wunderground v.1.15,2013-06-27 23:21:00,
2013-06-27 19:26:00,79.2,69.4,29.70,SW,220,2.0,5.0,72,0.00,,,0.00,Wunderground v.1.15,2013-06-27 23:26:00,
2013-06-27 19:32:00,79.0,69.6,29.69,South,189,2.0,5.0,73,0.00,,,0.00,Wunderground v.1.15,2013-06-27 23:32:00,
2013-06-27 19:38:00,78.8,69.8,29.69,SSW,200,2.0,5.0,74,0.00,,,0.00,Wunderground v.1.15,2013-06-27 23:38:00,
2013-06-27 19:44:00,78.5,69.9,29.69,South,191,3.0,5.0,75,0.00,,,0.00,Wunderground v.1.15,2013-06-27 23:44:00,
2013-06-27 19:50:00,78.3,70.1,29.68,SSW,211,3.0,3.0,76,0.00,,,0.00,Wunderground v.1.15,2013-06-27 23:50:00,
2013-06-27 19:56:00,78.1,70.3,29.68,SW,221,2.0,5.0,77,0.00,,,0.00,Wunderground v.1.15,2013-06-27 23:56:00,
2013-06-27 20:01:00,77.9,70.5,29.68,SSW,201,2.0,5.0,78,0.00,,,0.00,Wunderground v.1.15,2013-06-28 00:01:00,
2013-06-27 20:08:00,77.4,71.1,29.68,SSW,195,2.0,5.0,81,0.00,,,0.00,Wunderground v.1.15,2013-06-28 00:08:00,
2013-06-27 20:14:00,77.0,71.1,29.69,SSW,201,2.0,5.0,82,0.00,,,0.00,Wunderground v.1.15,2013-06-28 00:14:00,
2013-06-27 20:20:00,76.6,71.0,29.69,SSW,203,2.0,5.0,83,0.00,,,0.00,Wunderground v.1.15,2013-06-28 00:20:00,
2013-06-27 20:26:00,76.4,70.9,29.70,SSE,168,2.0,5.0,83,0.00,,,0.00,Wunderground v.1.15,2013-06-28 00:26:00,
2013-06-27 20:32:00,76.2,70.7,29.70,SSW,198,2.0,5.0,83,0.00,,,0.00,Wunderground v.1.15,2013-06-28 00:32:00,
2013-06-27 20:38:00,76.0,70.5,29.69,SSE,159,2.0,5.0,83,0.00,,,0.00,Wunderground v.1.15,2013-06-28 00:38:00,
2013-06-27 20:44:00,75.9,70.4,29.69,South,183,2.0,5.0,83,0.00,,,0.00,Wunderground v.1.15,2013-06-28 00:44:00,
2013-06-27 20:50:00,75.7,70.5,29.69,SSW,207,2.0,5.0,84,0.00,,,0.00,Wunderground v.1.15,2013-06-28 00:50:00,
2013-06-27 20:55:00,75.5,70.7,29.68,South,186,3.0,5.0,85,0.00,,,0.00,Wunderground v.1.15,2013-06-28 00:55:00,
2013-06-27 21:02:00,75.6,70.4,29.68,South,191,3.0,5.0,84,0.00,,,0.00,Wunderground v.1.15,2013-06-28 01:02:00,
2013-06-27 21:07:00,75.8,70.6,29.68,SSW,197,4.0,5.0,84,0.00,,,0.00,Wunderground v.1.15,2013-06-28 01:07:00,
2013-06-27 21:13:00,75.8,70.6,29.68,South,188,3.0,5.0,84,0.00,,,0.00,Wunderground v.1.15,2013-06-28 01:13:00,
2013-06-27 21:18:00,75.7,70.9,29.67,SE,129,2.0,5.0,85,0.00,,,0.00,Wunderground v.1.15,2013-06-28 01:18:00,
2013-06-27 21:24:00,75.6,70.8,29.67,SSE,160,2.0,5.0,85,0.00,,,0.00,Wunderground v.1.15,2013-06-28 01:24:00,
2013-06-27 21:30:00,75.4,70.6,29.66,SSE,148,2.0,5.0,85,0.00,,,0.00,Wunderground v.1.15,2013-06-28 01:30:00,
2013-06-27 21:37:00,75.1,70.6,29.67,ESE,112,1.0,5.0,86,0.00,,,0.00,Wunderground v.1.15,2013-06-28 01:37:00,
2013-06-27 21:43:00,74.8,70.7,29.67,ESE,110,0.0,5.0,87,0.00,,,0.00,Wunderground v.1.15,2013-06-28 01:43:00,
2013-06-27 21:49:00,74.5,71.0,29.67,ESE,110,0.0,5.0,89,0.00,,,0.00,Wunderground v.1.15,2013-06-28 01:49:00,
2013-06-27 21:55:00,74.1,70.6,29.68,NNE,20,0.0,5.0,89,0.00,,,0.00,Wunderground v.1.15,2013-06-28 01:55:00,
2013-06-27 22:01:00,73.8,70.7,29.67,NE,50,1.0,1.0,90,0.00,,,0.00,Wunderground v.1.15,2013-06-28 02:01:00,
2013-06-27 22:06:00,73.6,70.5,29.67,SE,128,1.0,5.0,90,0.00,,,0.00,Wunderground v.1.15,2013-06-28 02:06:00,
2013-06-27 22:11:00,73.3,69.9,29.67,SE,138,1.0,1.0,89,0.00,,,0.00,Wunderground v.1.15,2013-06-28 02:11:00,
2013-06-27 22:17:00,73.0,70.2,29.68,North,5,2.0,8.0,91,0.00,,,0.00,Wunderground v.1.15,2013-06-28 02:17:00,
2013-06-27 22:25:00,73.9,69.8,29.68,NE,49,4.0,5.0,87,0.00,,,0.00,Wunderground v.1.15,2013-06-28 02:25:00,
2013-06-27 22:30:00,74.2,70.1,29.68,NNE,20,4.0,10.0,87,0.00,,,0.00,Wunderground v.1.15,2013-06-28 02:30:00,
2013-06-27 22:36:00,74.6,70.1,29.68,SW,226,4.0,5.0,86,0.00,,,0.00,Wunderground v.1.15,2013-06-28 02:36:00,
2013-06-27 22:42:00,74.5,70.0,29.68,NNE,27,1.0,5.0,86,0.00,,,0.00,Wunderground v.1.15,2013-06-28 02:42:00,
2013-06-27 22:48:00,74.5,70.4,29.68,NNE,18,2.0,5.0,87,0.00,,,0.00,Wunderground v.1.15,2013-06-28 02:48:00,
2013-06-27 22:54:00,74.1,70.0,29.68,NNE,18,1.0,5.0,87,0.00,,,0.00,Wunderground v.1.15,2013-06-28 02:54:00,
2013-06-27 23:01:00,74.0,70.2,29.67,NNE,19,0.0,5.0,88,0.00,,,0.00,Wunderground v.1.15,2013-06-28 03:01:00,
2013-06-27 23:06:00,73.8,70.4,29.67,NNE,18,0.0,5.0,89,0.00,,,0.00,Wunderground v.1.15,2013-06-28 03:06:00,
2013-06-27 23:11:00,73.4,70.3,29.67,SSW,193,1.0,5.0,90,0.00,,,0.00,Wunderground v.1.15,2013-06-28 03:11:00,
2013-06-27 23:17:00,73.1,70.3,29.67,SSW,206,2.0,5.0,91,0.00,,,0.00,Wunderground v.1.15,2013-06-28 03:17:00,
2013-06-27 23:23:00,72.8,70.0,29.66,SSW,205,1.0,5.0,91,0.00,,,0.00,Wunderground v.1.15,2013-06-28 03:23:00,
2013-06-27 23:29:00,72.7,69.9,29.67,SSW,205,1.0,5.0,91,0.00,,,0.00,Wunderground v.1.15,2013-06-28 03:29:00,
2013-06-27 23:36:00,72.5,70.0,29.67,SSW,205,0.0,5.0,92,0.00,,,0.00,Wunderground v.1.15,2013-06-28 03:36:00,
2013-06-27 23:42:00,72.4,69.9,29.67,SSW,205,0.0,5.0,92,0.00,,,0.00,Wunderground v.1.15,2013-06-28 03:42:00,
2013-06-27 23:48:00,72.4,69.9,29.67,SSW,207,0.0,5.0,92,0.00,,,0.00,Wunderground v.1.15,2013-06-28 03:48:00,
2013-06-27 23:54:00,72.4,69.9,29.67,North,4,2.0,5.0,92,0.00,,,0.00,Wunderground v.1.15,2013-06-28 03:54:00,
2013-06-27 23:59:00,72.7,70.2,29.67,NW,326,3.0,5.0,92,0.00,,,0.00,Wunderground v.1.15,2013-06-28 03:59:00,